Weather History for Pensacola NAS, FL

Change the Weather History Date:

Monday, October 8, 2012

  Actual Average Record
Temperature  
Mean Temperature 66 °F -  
Max Temperature 78 °F 78 °F 88 °F (2002)
Min Temperature 55 °F 62 °F 51 °F (2000)
Cooling Degree Days 2    
Growing Degree Days 16 (Base 50)    
Moisture  
Dew Point 54 °F    
Average Humidity 69    
Maximum Humidity 84    
Minimum Humidity 50    
Precipitation  
Precipitation 0.00 in - - ()
Sea Level Pressure  
Sea Level Pressure 30.06 in    
Wind  
Wind Speed 8 mph (North)    
Max Wind Speed 14 mph    
Max Gust Speed 18 mph    
Visibility 10 miles    
Events      
Averages and records for this station are not official NWS values.
T = Trace of Precipitation, MM = Missing Value Source: NWS Daily Summary

Daily Weather History Graph

Daily Weather History Graph

Search for Another Location

Airport:

Trip Planner

Search our weather history database for the weather conditions in past years. The results will help you decide how hot, cold, wet, or windy it might be!

Date:

Astronomy

Oct. 08, 2012 Rise Set
Actual Time 6:47 AM CDT 6:25 PM CDT
Civil Twilight 6:23 AM CDT 6:49 PM CDT
Nautical Twilight 5:55 AM CDT 7:17 PM CDT
Astronomical Twilight 5:27 AM CDT 7:45 PM CDT
Moon No Moon Rise 1:49 PM CDT (10/8)
Length of Visible Light 12h 26m
Length of Day
11h 38m
Last Quarter, 46% of the Moon is Illuminated
Oct 8
Last Quarter
Oct 15
New
Oct 21
First Quarter
Oct 29
Full
Nov 6
Last Quarter

Hourly Weather History & Observations

Time (CDT) Temp. Dew Point Humidity Pressure Visibility Wind Dir Wind Speed Gust Speed Precip Events Conditions
12:56 AM 59.0 °F 53.1 °F 81% 30.05 in 10.0 mi North 8.1 mph - N/A   Clear
1:56 AM 57.9 °F 52.0 °F 81% 30.04 in 10.0 mi North 9.2 mph - N/A   Clear
2:56 AM 57.0 °F 52.0 °F 83% 30.04 in 10.0 mi North 9.2 mph - N/A   Clear
3:56 AM 57.0 °F 51.1 °F 81% 30.03 in 10.0 mi North 9.2 mph - N/A   Overcast
4:56 AM 57.9 °F 51.1 °F 78% 30.04 in 10.0 mi North 6.9 mph - N/A   Overcast
5:56 AM 55.9 °F 51.1 °F 84% 30.05 in 10.0 mi North 4.6 mph - N/A   Clear
6:56 AM 55.9 °F 51.1 °F 84% 30.06 in 10.0 mi Calm Calm - N/A   Clear
7:56 AM 57.9 °F 52.0 °F 81% 30.08 in 10.0 mi North 5.8 mph - N/A   Clear
8:56 AM 60.1 °F 52.0 °F 75% 30.10 in 10.0 mi North 11.5 mph - N/A   Mostly Cloudy
9:56 AM 66.0 °F 54.0 °F 65% 30.12 in 10.0 mi North 8.1 mph - N/A   Partly Cloudy
10:56 AM 69.1 °F 54.0 °F 58% 30.11 in 10.0 mi North 10.4 mph - N/A   Mostly Cloudy
11:56 AM 73.0 °F 55.9 °F 55% 30.08 in 10.0 mi NNW 9.2 mph - N/A   Clear
12:56 PM 75.0 °F 57.0 °F 53% 30.06 in 10.0 mi North 13.8 mph 18.4 mph N/A   Clear
1:56 PM 77.0 °F 57.9 °F 52% 30.03 in 10.0 mi North 9.2 mph - N/A   Clear
2:56 PM 78.1 °F 57.9 °F 50% 30.02 in 10.0 mi North 8.1 mph - N/A   Clear
3:56 PM 75.9 °F 57.0 °F 52% 30.01 in 10.0 mi NNW 6.9 mph - N/A   Clear
4:56 PM 75.9 °F 57.9 °F 54% 30.02 in 10.0 mi NNW 9.2 mph - N/A   Clear
5:56 PM 72.0 °F 57.0 °F 59% 30.04 in 10.0 mi NNW 6.9 mph - N/A   Clear
6:56 PM 68.0 °F 57.0 °F 68% 30.05 in 10.0 mi North 4.6 mph - N/A   Clear
7:56 PM 66.0 °F 55.9 °F 70% 30.07 in 10.0 mi NNW 5.8 mph - N/A   Clear
8:56 PM 64.9 °F 55.0 °F 70% 30.09 in 10.0 mi North 6.9 mph - N/A   Clear
9:56 PM 63.0 °F 53.1 °F 70% 30.09 in 10.0 mi North 8.1 mph - N/A   Clear
10:56 PM 62.1 °F 52.0 °F 70% 30.09 in 10.0 mi North 5.8 mph - N/A   Clear
11:56 PM 60.1 °F 52.0 °F 75% 30.09 in 10.0 mi North 5.8 mph - N/A   Clear